DW2199 Weather Reports


Display with metric or nautical units.
time (UTC)temp
F
wind
direction
speed
MPH
gust
MPH
rain 1hr
in
rain 24hr
in
rain mn
in
humidity
%
barometer
mb
20260904211602 79 188 0.0 1.0 0.00 0.00 0.00 62 1009.2
20260904210043 80 193 0.0 1.0 0.00 0.00 0.00 57 1009.4
20260904204540 81 186 0.0 3.0 0.00 0.00 0.00 60 1009.3
20260904203038 82 186 0.0 2.0 0.00 0.00 0.00 54 1009.3
20260904201537 84 190 0.0 3.0 0.00 0.00 0.00 48 1009.3
20260904200036 83 167 0.0 5.0 0.00 0.00 0.00 47 1009.3
20260904194534 83 190 0.0 4.0 0.00 0.00 0.00 48 1009.4
20260904193043 84 200 0.0 3.0 0.00 0.00 0.00 50 1009.4
20260904191533 84 184 0.0 3.0 0.00 0.00 0.00 50 1009.4
20260904190013 85 200 0.0 2.0 0.00 0.00 0.00 46 1009.7
20260904184518 84 281 0.0 2.0 0.00 0.00 0.00 49 1009.6
20260904183053 83 1 0.0 6.0 0.00 0.00 0.00 50 1009.8
20260904181552 84 205 0.0 2.0 0.00 0.00 0.00 52 1009.7
20260904180049 85 101 0.0 3.0 0.00 0.00 0.00 49 1009.8
20260904174539 85 354 1.0 4.0 0.00 0.00 0.00 50 1009.8
20260904173039 86 8 1.0 7.0 0.00 0.00 0.00 45 1009.8
20260904171530 85 143 2.0 6.0 0.00 0.00 0.00 49 1009.9
20260904170028 80 163 0.0 4.0 0.00 0.00 0.00 56 1009.9
20260904164527 83 167 1.0 5.0 0.00 0.00 0.00 51 1009.9
20260904163026 82 161 0.0 4.0 0.00 0.00 0.00 53 1010.1
20260904161523 81 210 0.0 1.0 0.00 0.00 0.00 55 1010.2
20260904160003 81 209 0.0 3.0 0.00 0.00 0.00 55 1010.4
20260904154559 82 158 0.0 3.0 0.00 0.00 0.00 53 1010.6
20260904153050 84 210 0.0 4.0 0.00 0.00 0.00 53 1010.6
20260904151540 83 169 0.0 6.0 0.00 0.00 0.00 54 1010.7
20260904150044 82 5 1.0 5.0 0.00 0.00 0.00 60 1010.8
20260904144539 80 218 1.0 3.0 0.00 0.00 0.00 65 1010.7
20260904143037 76 211 0.0 5.0 0.00 0.00 0.00 73 1010.7
20260904141553 72 193 0.0 2.0 0.00 0.00 0.00 83 1010.8
20260904140038 70 197 0.0 1.0 0.00 0.00 0.00 85 1010.9
20260904134535 70 196 0.0 1.0 0.00 0.00 0.00 88 1010.9
20260904133035 68 195 0.0 0.0 0.00 0.00 0.00 91 1010.8
20260904131543 67 195 0.0 0.0 0.00 0.00 0.00 93 1011.0
20260904130023 66 195 0.0 0.0 0.00 0.00 0.00 96 1011.0
20260904124523 64 195 0.0 0.0 0.00 0.00 0.00 97 1011.1
20260904123021 63 196 0.0 0.0 0.00 0.00 0.00 97 1011.2
20260904121522 63 196 0.0 0.0 0.00 0.00 0.00 97 1011.3
20260904120020 61 195 0.0 0.0 0.00 0.00 0.00 97 1011.3
20260904114535 59 195 0.0 0.0 0.00 0.00 0.00 97 1011.3
20260904113019 58 195 0.0 0.0 0.00 0.00 0.00 96 1011.0
20260904111518 58 196 0.0 0.0 0.00 0.00 0.00 96 1010.9
20260904110017 58 196 0.0 0.0 0.00 0.00 0.00 96 1010.7
20260904104504 58 195 0.0 0.0 0.00 0.00 0.00 96 1010.6
20260904103004 58 195 0.0 0.0 0.00 0.00 0.00 96 1010.5
20260904101514 58 195 0.0 0.0 0.00 0.00 0.00 96 1010.4
20260904100002 58 195 0.0 0.0 0.00 0.00 0.00 96 1010.3
20260904094501 58 195 0.0 0.0 0.00 0.00 0.00 96 1010.3
20260904093001 58 195 0.0 0.0 0.00 0.00 0.00 96 1010.1
20260904091600 58 195 0.0 0.0 0.00 0.00 0.00 96 1010.0
20260904090042 58 195 0.0 0.0 0.00 0.00 0.00 96 1010.1
20260904084541 58 195 0.0 0.0 0.00 0.00 0.00 95 1010.0
20260904083028 59 195 0.0 0.0 0.00 0.00 0.00 95 1010.0
20260904081527 59 196 0.0 0.0 0.00 0.00 0.00 95 1009.9
20260904080025 59 196 0.0 0.0 0.00 0.00 0.00 95 1009.9
20260904074527 59 196 0.0 0.0 0.00 0.00 0.00 95 1009.9
20260904073023 60 196 0.0 0.0 0.00 0.00 0.00 95 1009.9
20260904071531 60 195 0.0 0.0 0.00 0.00 0.00 95 1009.8
20260904070021 60 195 0.0 0.0 0.00 0.00 0.00 95 1009.8
20260904064521 60 196 0.0 0.0 0.00 0.00 0.00 95 1009.8
20260904063031 60 196 0.0 0.0 0.00 0.00 0.00 95 1009.9
20260904061502 60 195 0.0 0.0 0.00 0.00 0.00 95 1010.0
20260904060002 60 195 0.0 0.0 0.00 0.00 0.00 95 1010.2
20260904054540 61 195 0.0 0.0 0.00 0.00 0.00 95 1010.3
20260904053040 61 196 0.0 0.0 0.00 0.00 0.00 94 1010.3
20260904051519 61 195 0.0 0.0 0.00 0.00 0.00 94 1010.3
20260904050018 61 196 0.0 0.0 0.00 0.00 0.00 94 1010.5
20260904044604 62 196 0.0 0.0 0.00 0.00 0.00 94 1010.5
20260904043058 62 196 0.0 0.0 0.00 0.00 0.00 94 1010.7
20260904041548 62 195 0.0 0.0 0.00 0.00 0.00 94 1010.7
20260904040046 62 196 0.0 0.0 0.00 0.00 0.00 94 1010.6
20260904034558 63 195 0.0 0.0 0.00 0.00 0.00 93 1010.6
20260904033043 63 195 0.0 0.0 0.00 0.00 0.00 93 1010.7
20260904031541 63 195 0.0 0.0 0.00 0.00 0.00 93 1010.8
20260904030039 64 195 0.0 0.0 0.00 0.00 0.00 93 1010.9
20260904024537 64 196 0.0 0.0 0.00 0.00 0.00 92 1010.9
20260904023036 64 195 0.0 0.0 0.00 0.00 0.00 92 1011.1
20260904021525 65 195 0.0 0.0 0.00 0.00 0.00 92 1011.0
20260904020022 65 196 0.0 0.0 0.00 0.00 0.00 92 1011.1
20260904014523 65 195 0.0 1.0 0.00 0.00 0.00 91 1011.2
20260904013020 66 195 0.0 0.0 0.00 0.00 0.00 91 1011.2
20260904011527 66 195 0.0 0.0 0.00 0.00 0.00 91 1011.1
20260904010024 67 196 0.0 0.0 0.00 0.00 0.00 91 1011.0
20260904004513 67 195 0.0 0.0 0.00 0.00 0.00 90 1011.1
20260904003011 68 195 0.0 0.0 0.00 0.00 0.00 90 1010.9
20260904001551 68 195 0.0 1.0 0.00 0.00 0.00 89 1010.9
20260904000116 69 195 0.0 1.0 0.00 0.00 0.00 89 1010.5
20260903234534 70 195 0.0 1.0 0.00 0.00 0.00 88 1010.0
20260903233025 71 195 0.0 0.0 0.00 0.00 0.00 86 1010.1
20260903231507 72 195 0.0 0.0 0.00 0.00 0.00 86 1009.9
20260903230006 73 195 0.0 1.0 0.00 0.00 0.00 85 1010.1
20260903224605 74 195 0.0 0.0 0.00 0.00 0.00 84 1010.1
20260903223052 75 195 0.0 0.0 0.00 0.00 0.00 81 1010.2
20260903221552 76 195 0.0 0.0 0.00 0.00 0.00 78 1010.1
20260903220106 77 195 0.0 0.0 0.00 0.00 0.00 77 1009.7
20260903214550 79 195 0.0 1.0 0.00 0.00 0.00 74 1009.8
20260903213050 81 195 0.0 2.0 0.00 0.00 0.00 72 1010.1